Le nostre stazioni meteo in Italia

Pubblicità
Il mio iltempo24.it
Luqa, Malta (16597): Temperatura & dewpoint: 08.11.2019 10:00:00 - 14.11.2019 10:00:00 (CET)Luqa, Malta (16597): velocità del vento: 08.11.2019 10:00:00 - 14.11.2019 10:00:00 (CET)Luqa, Malta (16597): direzione del vento: 08.11.2019 10:00:00 - 14.11.2019 10:00:00 (CET)Luqa, Malta (16597): reduced air pressure: 08.11.2019 10:00:00 - 14.11.2019 10:00:00 (CET)Luqa, Malta (16597): visibility: 08.11.2019 10:00:00 - 14.11.2019 10:00:00 (CET)
Data & Tempo tt [°C] td [°C] ff [km/h] ff [kn] dd ppp [hPa] vv [km]
14.11.2019 10:00:00 19,1 12,8 24 13 O 1010,2 10
14.11.2019 09:00:00 18,0 13,0 24 13 OSO - 10
14.11.2019 08:00:00 18,0 12,0 22 12 O - 10
14.11.2019 07:00:00 16,4 11,7 11 6 SO 1009,4 10
14.11.2019 06:00:00 17,0 11,0 21 11 OSO - 10
14.11.2019 05:00:00 18,0 10,0 21 11 OSO - 10
14.11.2019 04:00:00 17,2 9,9 16 9 OSO 1009,4 10
14.11.2019 03:00:00 17,0 9,0 16 9 OSO - 10
14.11.2019 02:00:00 17,0 8,0 11 6 OSO - 10
14.11.2019 01:00:00 16,1 9,3 15 8 OSO 1011,1 10
14.11.2019 00:00:00 16,0 10,0 16 9 OSO - 10
13.11.2019 23:00:00 16,0 10,0 13 7 OSO - 10
13.11.2019 22:00:00 15,5 10,2 13 7 O 1012,2 10
13.11.2019 21:00:00 15,0 11,0 5 3 O - 10
13.11.2019 20:00:00 15,0 11,0 11 6 ONO - 10
13.11.2019 19:00:00 15,7 11,1 13 7 ONO 1011,6 10
13.11.2019 18:00:00 16,0 12,0 15 8 ONO - 10
13.11.2019 17:00:00 17,0 12,0 16 9 ONO - 10
13.11.2019 16:00:00 17,5 11,8 26 14 NO 1009,8 10
13.11.2019 15:00:00 18,0 12,0 24 13 NO - 10
13.11.2019 14:00:00 19,0 13,0 29 16 NO - 10
13.11.2019 13:00:00 17,1 13,8 21 11 NO 1009,2 10
13.11.2019 12:00:00 17,0 13,0 15 8 ONO - 10
13.11.2019 11:00:00 19,0 12,0 26 14 ONO - 10
13.11.2019 10:00:00 17,4 11,9 15 8 NO 1008,8 10
13.11.2019 09:00:00 18,0 12,0 22 12 ONO - 10
13.11.2019 08:00:00 17,0 12,0 31 17 ONO - 10
13.11.2019 07:00:00 15,7 11,8 26 14 ONO 1006,3 10
13.11.2019 06:00:00 16,0 11,0 26 14 ONO - 10
13.11.2019 05:00:00 16,0 11,0 26 14 O - 10
13.11.2019 04:00:00 16,4 10,4 34 18 O 1004,7 10
13.11.2019 03:00:00 16,0 11,0 31 17 O - 10
13.11.2019 02:00:00 16,0 10,0 29 16 O - 10
13.11.2019 01:00:00 16,8 9,9 37 20 O 1003,8 10
13.11.2019 00:00:00 17,0 10,0 31 17 O - 10
12.11.2019 23:00:00 17,0 10,0 28 15 O - 10
12.11.2019 22:00:00 15,3 12,7 34 18 O 1001,3 10
12.11.2019 21:00:00 15,0 13,0 37 20 O - 8
12.11.2019 20:00:00 15,0 13,0 31 17 OSO - 4,0
12.11.2019 19:00:00 15,0 12,6 28 15 SO 999,5 3,0
12.11.2019 18:00:00 15,0 13,0 29 16 SO - 6
12.11.2019 17:00:00 14,0 11,0 34 18 SO - 7
12.11.2019 16:00:00 16,0 11,1 39 21 SSO 998,0 10
12.11.2019 15:00:00 15,0 11,0 31 17 SO - 6
12.11.2019 14:00:00 16,0 11,0 42 23 SO - 10
12.11.2019 13:00:00 15,7 10,8 37 20 SO 997,9 10
12.11.2019 12:00:00 15,0 11,0 34 18 SO - 10
12.11.2019 11:00:00 15,0 11,0 35 19 SO - 9
12.11.2019 10:00:00 13,8 10,4 39 21 SSO 998,4 8
12.11.2019 09:00:00 16,0 9,0 31 17 SSO - 5
12.11.2019 08:00:00 15,0 9,0 31 17 OSO - 10
12.11.2019 07:00:00 14,8 9,8 22 12 SO 996,9 10
12.11.2019 06:00:00 13,0 11,0 26 14 SSO - 10
12.11.2019 05:00:00 14,0 12,0 34 18 SSO - 10
12.11.2019 04:00:00 14,6 12,9 21 11 SSO 998,7 10
12.11.2019 03:00:00 15,0 13,0 21 11 SO - 8
12.11.2019 02:00:00 17,0 11,0 24 13 OSO - 10
12.11.2019 01:00:00 16,9 12,5 16 9 OSO 999,2 10
12.11.2019 00:00:00 17,0 14,0 18 10 O - 10
11.11.2019 23:00:00 17,0 16,0 11 6 ONO - 10
11.11.2019 22:00:00 17,3 16,5 9 5 O 1000,9 10
11.11.2019 21:00:00 18,0 17,0 8 4 SO - 10
11.11.2019 20:00:00 18,0 17,0 8 4 SSE - 10
11.11.2019 19:00:00 18,1 16,3 28 15 SE 1001,0 10
11.11.2019 18:00:00 18,0 17,0 26 14 ESE - 10
11.11.2019 17:00:00 18,0 16,0 24 13 ESE - 9
11.11.2019 16:00:00 19,6 16,0 46 25 SE 1001,8 6
11.11.2019 15:00:00 19,0 17,0 28 15 SE - 10
11.11.2019 14:00:00 19,0 17,0 37 20 SE - 10
11.11.2019 13:00:00 19,9 16,7 44 24 SE 1003,8 10
11.11.2019 12:00:00 21,0 15,0 37 20 SE - 10
11.11.2019 11:00:00 21,0 14,0 50 27 SE - 10
11.11.2019 10:00:00 20,6 13,9 42 23 SE 1008,1 10
11.11.2019 09:00:00 21,0 13,0 41 22 SE - 10
11.11.2019 08:00:00 20,0 12,0 29 16 SSE - 10
11.11.2019 07:00:00 19,0 9,9 26 14 SSE 1010,1 10
11.11.2019 06:00:00 19,0 10,0 22 12 SSE - 10
11.11.2019 05:00:00 19,0 8,0 21 11 SSE - 10
11.11.2019 04:00:00 19,1 8,9 24 13 S 1011,0 10
11.11.2019 03:00:00 19,0 9,0 24 13 S - 10
11.11.2019 02:00:00 19,0 10,0 29 16 S - 10
11.11.2019 01:00:00 18,9 9,6 26 14 S 1012,7 10
11.11.2019 00:00:00 19,0 10,0 18 10 S - 10
10.11.2019 23:00:00 18,0 9,0 16 9 S - 10
10.11.2019 22:00:00 18,3 6,3 18 10 SSO 1013,8 10
10.11.2019 21:00:00 18,0 9,0 18 10 SSO - 10
10.11.2019 20:00:00 18,0 9,0 13 7 SSO - 10
10.11.2019 19:00:00 18,3 8,2 18 10 SO 1013,2 10
10.11.2019 18:00:00 18,0 11,0 15 8 S - 10
10.11.2019 17:00:00 18,0 10,0 15 8 SSO - 10
10.11.2019 16:00:00 18,9 8,7 11 6 SSO 1012,9 10
10.11.2019 15:00:00 20,0 9,0 11 6 SSO - 10
10.11.2019 14:00:00 20,0 9,0 13 7 SO - 10
10.11.2019 13:00:00 19,9 9,6 16 9 O 1014,2 10
10.11.2019 12:00:00 20,0 11,0 18 10 O - 10
10.11.2019 11:00:00 19,0 10,0 13 7 O - 10
10.11.2019 10:00:00 18,9 10,6 16 9 OSO 1015,0 10
10.11.2019 09:00:00 19,0 10,0 15 8 ONO - 10
10.11.2019 08:00:00 17,0 9,0 15 8 ONO - 10
10.11.2019 07:00:00 15,1 7,9 11 6 O 1014,7 10
10.11.2019 06:00:00 15,0 8,0 15 8 ONO - 10
10.11.2019 05:00:00 15,0 8,0 16 9 ONO - 10
10.11.2019 04:00:00 15,5 8,0 15 8 ONO 1014,5 10
10.11.2019 03:00:00 16,0 8,0 16 9 ONO - 10
10.11.2019 02:00:00 16,0 7,0 15 8 ONO - 10
10.11.2019 01:00:00 16,0 8,7 16 9 ONO 1014,7 10
10.11.2019 00:00:00 16,0 9,0 15 8 ONO - 10
09.11.2019 23:00:00 16,0 9,0 15 8 ONO - 10
09.11.2019 22:00:00 15,7 10,0 16 9 ONO 1015,3 10
09.11.2019 21:00:00 16,0 10,0 13 7 NO - 10
09.11.2019 20:00:00 16,0 8,0 16 9 NO - 10
09.11.2019 19:00:00 15,8 8,2 18 10 NO 1013,7 10
09.11.2019 18:00:00 16,0 9,0 26 14 NO - 10
09.11.2019 17:00:00 16,0 10,0 21 11 ONO - 10
09.11.2019 16:00:00 16,6 8,9 26 14 NO 1013,2 10
09.11.2019 15:00:00 16,0 10,0 26 14 ONO - 10
09.11.2019 14:00:00 17,0 12,0 37 20 NO - 10
09.11.2019 13:00:00 16,7 15,1 37 20 NO 1013,4 9
09.11.2019 12:00:00 18,0 13,0 18 10 ONO - 8
09.11.2019 11:00:00 22,0 16,0 5 3 O - 10
09.11.2019 10:00:00 20,7 16,2 4 2 - 1013,8 10
09.11.2019 09:00:00 20,0 15,0 13 7 NNO - 10
09.11.2019 08:00:00 21,0 12,0 11 6 O - 10
09.11.2019 07:00:00 20,6 11,3 16 9 SSO 1013,1 10
09.11.2019 06:00:00 20,0 11,0 16 9 SO - 10
09.11.2019 05:00:00 19,0 11,0 13 7 SO - 10
09.11.2019 04:00:00 19,1 11,0 13 7 OSO 1013,0 10
09.11.2019 03:00:00 19,0 11,0 11 6 SSO - 10
09.11.2019 02:00:00 19,0 10,0 15 8 OSO - 10
09.11.2019 01:00:00 19,0 10,3 15 8 OSO 1013,7 10
09.11.2019 00:00:00 19,0 10,0 15 8 SO - 10
08.11.2019 23:00:00 19,0 11,0 13 7 SO - 10
08.11.2019 22:00:00 19,4 11,4 18 10 SO 1013,9 10
08.11.2019 21:00:00 19,0 11,0 13 7 SO - 10
08.11.2019 20:00:00 19,0 11,0 16 9 OSO - 10
08.11.2019 19:00:00 19,5 10,4 15 8 SO 1013,5 10
08.11.2019 18:00:00 20,0 12,0 15 8 SO - 10
08.11.2019 17:00:00 20,0 11,0 21 11 SO - 10
08.11.2019 16:00:00 21,0 10,9 18 10 OSO 1012,3 10
08.11.2019 15:00:00 21,0 11,0 18 10 OSO - 10
08.11.2019 14:00:00 22,0 11,0 18 10 OSO - 10
08.11.2019 13:00:00 21,4 11,4 21 11 SO 1012,9 10
08.11.2019 12:00:00 22,0 13,0 26 14 OSO - 10
08.11.2019 11:00:00 21,0 12,0 22 12 OSO - 10
08.11.2019 10:00:00 21,2 12,5 22 12 OSO 1013,9 10

tt = Temperatura
td = dewpoint
ff = velocità del vento
dd = direzione del vento
ppp = reduced air pressure
vv = visibility

Stazioni seguenti

WeatherPro
AMSI
MeteoEarth